Flag for Germany Weather past 2 weeks in Laatzen, Lower Saxony, Germany

Now
62 °F

Fog.


Feels Like: 62 °F
Forecast: 54 / 62 °F
Wind: 3 mph from West

Location: Hannover

Current Time: Sep 21, 2014 at 1:06:40 AM

Latest Report: Sep 21, 2014 at 12:00 AM


Visibility: 2 mi

Pressure: 29.92 "Hg

Humidity: 97%

Dew point: 62 °F

Location of LaatzenLocation

Historic Weather in Laatzen — Graph

°F

Laatzen temperature yesterday

Maximum temperature yesterday: 67 °F (at 3:00 PM)
Minimum temperature yesterday: 62 °F (at 10:00 PM)
Average temperature yesterday: 64 °F

Past Weeks' High & Low Weather Summary

 TemperatureHumidityPressure
High78 °F (Sep 6, 2:00 PM)100% (Sep 6, 3:00 AM)30.24 "Hg (Sep 6, 3:00 AM)
Low48 °F (Sep 12, 3:00 AM)49% (Sep 17, 6:00 PM)29.87 "Hg (Sep 6, 4:00 PM)
Average62 °F87%30.04 "Hg
* Reported Midnight between Sep 5 and Sep 6 — Midnight between Sep 20 and Sep 21, Laatzen, Weather by CustomWeather, © 2014

Note: Actual official high and low records may vary slightly from our data, if they occured in-between our weather recording intervals... More about our weather records

Advertising

Laatzen weather history for previous 24 hours

 ConditionsComfort  
Time TempWeatherWind HumidityBarometerVisibility
12:00 AM
Sep 21
62 °FFog.3 mph97%29.92 "Hg2 mi
10:00 PM
Sep 20
62 °FFog.2 mph99%29.92 "Hg2 mi
9:00 PM63 °FFog.1 mph98%29.92 "Hg3 mi
8:00 PM64 °FOvercast.2 mph91%29.91 "Hg5 mi
3:00 PM67 °FFog.2 mph89%29.93 "Hg4 mi
2:00 PM66 °FFog.3 mph93%29.94 "Hg4 mi
1:00 PM65 °FLow clouds.3 mph95%29.94 "Hg3 mi
12:00 PM65 °FDrizzle. Low clouds.3 mph97%29.94 "Hg1 mi
11:00 AM64 °FFog.3 mph100%29.93 "Hg1 mi
10:00 AM64 °FFog.2 mph100%29.93 "Hg1 mi
9:00 AM64 °FFog.2 mph100%29.92 "Hg1 mi
8:00 AM63 °FFog.2 mph99%29.92 "Hg2 mi
7:00 AM63 °FFog.1 mph99%29.91 "Hg2 mi
6:00 AM63 °FOvercast.1 mph100%29.91 "Hg11 mi
5:00 AM63 °FOvercast.1 mph100%29.91 "Hg12 mi
4:00 AM63 °FPassing clouds.1 mph99%29.91 "Hg12 mi
3:00 AM64 °FOvercast.2 mph98%29.91 "Hg12 mi
2:00 AM64 °FOvercast.1 mph97%29.91 "Hg12 mi
1:00 AM64 °FOvercast.2 mph96%29.92 "Hg12 mi
Weather by CustomWeather, © 2014

See weather overviewHow to use our weather pages